Weather History for Lone Rock, WI

Change the Weather History Date:

Wednesday, December 18, 2013

  Actual Average Record
Temperature  
Mean Temperature 22 °F -  
Max Temperature 37 °F 27 °F 53 °F (2002)
Min Temperature 6 °F 14 °F -13 °F (2005)
Degree Days  
Heating Degree Days 44    
Moisture  
Dew Point 12 °F    
Average Humidity 72    
Maximum Humidity 88    
Minimum Humidity 48    
Precipitation  
Precipitation 0.00 in - - ()
Sea Level Pressure  
Sea Level Pressure 29.93 in    
Wind  
Wind Speed 5 mph (SSE)    
Max Wind Speed 15 mph    
Max Gust Speed 30 mph    
Visibility 10 miles    
Events      
Averages and records for this station are not official NWS values.
T = Trace of Precipitation, MM = Missing Value Source: NWS Daily Summary

Daily Weather History Graph

Daily Weather History Graph

Search for Another Location

Airport:

Trip Planner

Search our weather history database for the weather conditions in past years. The results will help you decide how hot, cold, wet, or windy it might be!

Date:

Astronomy

Dec. 18, 2013 Rise Set
Actual Time 7:27 AM CST 4:27 PM CST
Civil Twilight 6:55 AM CST 4:59 PM CST
Nautical Twilight 6:19 AM CST 5:35 PM CST
Astronomical Twilight 5:44 AM CST 6:10 PM CST
Moon 6:01 PM CST (12/18) 8:05 AM CST (12/18)
Length of Visible Light 10h 04m
Length of Day
8h 59m
Full, 98% of the Moon is Illuminated
Dec 18
Full
Dec 25
Last Quarter
Jan 1
New
Jan 7
First Quarter
Jan 15
Full

Hourly Weather History & Observations

Time (CST) Temp. Windchill Dew Point Humidity Pressure Visibility Wind Dir Wind Speed Gust Speed Precip Events Conditions
12:56 AM 15.1 °F 5.2 °F 6.1 °F 68% 30.12 in 10.0 mi West 6.9 mph - N/A   Clear
1:56 AM 14.0 °F 3.9 °F 6.1 °F 71% 30.12 in 10.0 mi West 6.9 mph - N/A   Clear
2:56 AM 8.1 °F - 1.9 °F 76% 30.13 in 10.0 mi Calm Calm - N/A   Clear
3:56 AM 6.1 °F - 1.9 °F 83% 30.14 in 10.0 mi Calm Calm - N/A   Clear
4:56 AM 6.1 °F - 1.9 °F 83% 30.12 in 10.0 mi Calm Calm - N/A   Clear
5:56 AM 10.9 °F - 7.0 °F 84% 30.11 in 10.0 mi Calm Calm - N/A   Overcast
6:56 AM 8.1 °F -0.5 °F 5.0 °F 87% 30.09 in 10.0 mi ENE 4.6 mph - N/A   Clear
7:56 AM 10.0 °F 3.6 °F 6.1 °F 84% 30.08 in 10.0 mi East 3.5 mph - N/A   Clear
8:56 AM 14.0 °F 1.2 °F 9.0 °F 80% 30.05 in 10.0 mi East 10.4 mph - N/A   Clear
9:56 AM 19.0 °F 8.2 °F 12.0 °F 74% 30.01 in 9.0 mi East 9.2 mph - N/A   Clear
10:56 AM 28.0 °F 20.0 °F 15.1 °F 58% 29.96 in 10.0 mi SSE 8.1 mph - N/A   Clear
11:56 AM 32.0 °F 22.1 °F 14.0 °F 48% 29.90 in 10.0 mi SSE 13.8 mph - N/A   Clear
12:56 PM 30.0 °F 20.0 °F 16.0 °F 56% 29.84 in 10.0 mi South 12.7 mph - N/A   Clear
1:56 PM 37.0 °F 28.1 °F 19.0 °F 48% 29.78 in 10.0 mi South 15.0 mph 29.9 mph N/A   Clear
2:56 PM 37.0 °F 29.3 °F 19.0 °F 48% 29.79 in 10.0 mi SW 11.5 mph 20.7 mph N/A   Clear
3:56 PM 35.1 °F 29.3 °F 19.0 °F 52% 29.78 in 10.0 mi SW 6.9 mph - N/A   Clear
4:56 PM 33.1 °F 28.7 °F 19.0 °F 56% 29.78 in 10.0 mi SW 4.6 mph - N/A   Clear
5:56 PM 21.9 °F - 15.1 °F 75% 29.77 in 10.0 mi Calm Calm - N/A   Clear
6:56 PM 23.0 °F - 15.1 °F 72% 29.78 in 10.0 mi Calm Calm - N/A   Clear
7:56 PM 19.9 °F - 14.0 °F 78% 29.77 in 10.0 mi Calm Calm - N/A   Clear
8:56 PM 19.0 °F - 15.1 °F 85% 29.78 in 10.0 mi Calm Calm - N/A   Clear
9:56 PM 19.0 °F 13.9 °F 15.1 °F 85% 29.77 in 10.0 mi ENE 3.5 mph - N/A   Clear
10:56 PM 17.1 °F 10.0 °F 14.0 °F 88% 29.78 in 7.0 mi ENE 4.6 mph - N/A   Clear
11:56 PM 23.0 °F - 19.0 °F 85% 29.79 in 9.0 mi Calm Calm - N/A   Clear